Regional Weather Roundup
Issued by NWS

Home | Current Version | Previous Version | Text Only | Print | Product List | Glossary On
Versions: 1 2 3 4 5 6 7 8 9 10 11 12 13 14 15 16 17 18 19 20 21 22 23 24 25 26 27
000
ASUS42 KFFC 021103
RWRGA
WEATHER ROUNDUP FOR GEORGIA
NATIONAL WEATHER SERVICE PEACHTREE CITY GA
700 AM EDT MON MAY 02 2016

NOTE: "FAIR" INDICATES FEW OR NO CLOUDS BELOW 12,000 FEET WITH NO
SIGNIFICANT WEATHER AND/OR OBSTRUCTIONS TO VISIBILITY.

* = USE WITH CAUTION. THE STATIONS MARKED WITH AN ASTERISK MAY NOT
REPORT WEATHER SUCH AS PRECIPITATION, FOG, OR THUNDER AND ARE NOT
QUALITY CONTROLLED BY NWS.

THE REMARK "TC" DENOTES TEMPERATURE READING IN DEGREES CELSIUS.

GAZ001>058-021200-
NORTH GEORGIA

CITY           SKY/WX    TMP DP  RH WIND       PRES   REMARKS
ATLANTA        CLOUDY    67  64  90 CALM      30.02R
ATHENS         CLOUDY    68  67  96 CALM      30.03R
CHAMBLEE       CLOUDY    67  67 100 CALM      30.03R FOG
PEACHTREE CITY PTCLDY    63  62  97 CALM      30.03R FOG
ROME           CLOUDY    60  58  92 N3        30.02S
WEST ATLANTA   CLOUDY    66  64  93 CALM      30.02R
GAINESVILLE    CLOUDY    66  64  93 CALM      30.05S
CARTERSVILLE   CLOUDY    62  61  96 CALM      30.04R


CITY           SKY/WX    TMP DP  RH WIND       PRES   REMARKS
DALTON*        CLOUDY    61  61 100 CALM      30.03R
LAWRENCEVILLE* CLOUDY    66  64  94 CALM      30.04
KENNESAW*      MOCLDY    64  61  88 CALM      30.02
CANTON*        CLOUDY    63  61  94 CALM      30.05R FOG
BLAIRSVILLE*     N/A    N/A N/A N/A MISG      30.07R
$$

GAZ059>098-102>109-021200-
CENTRAL GEORGIA

CITY           SKY/WX    TMP DP  RH WIND       PRES   REMARKS
AUGUSTA-BUSH   CLOUDY    65  65 100 CALM      30.02R
AUGUSTA-DANIEL CLOUDY    68  64  87 SE3       30.04R
COLUMBUS       CLOUDY    65  63  93 CALM      30.00R
MACON          CLOUDY    69  65  86 CALM      30.01R


CITY           SKY/WX    TMP DP  RH WIND       PRES   REMARKS
LAGRANGE*      CLOUDY    62  62 100 CALM      30.02R FOG
SYLVANIA*      CLOUDY    69  69 100 CALM      30.04R FOG
MILLEDGEVILLE* CLOUDY    68  64  88 CALM      30.03R
$$

GAZ099>101-110>166-021200-
SOUTH GEORGIA

CITY           SKY/WX    TMP DP  RH WIND       PRES   REMARKS
SAVANNAH       MOCLDY    71  68  90 S3        30.03R
VALDOSTA       CLEAR     66  66 100 CALM      30.02R FOG
ALMA           PTCLDY    69  69 100 SE5       30.03R FOG
ST SIMONS      PTCLDY    74  72  93 S7        30.02S
FT STEWART     CLOUDY    68  66  94 CALM      30.01R FOG
ALBANY         CLOUDY    68  65  90 CALM      30.03R
BRUNSWICK      PTCLDY    73  72  94 S6        30.04R


CITY           SKY/WX    TMP DP  RH WIND       PRES   REMARKS
BAINBRIDGE*    CLOUDY    70  68  94 SE5       30.02R
MOULTRIE*      CLOUDY    66  64  94 CALM      30.03R
VIDALIA*       CLOUDY    68  66  94 SE3       30.04R FOG
WAYCROSS*      CLEAR     70  70 100 CALM      30.03R
DOUGLAS*       CLOUDY    70  68  94 CALM      30.04R FOG
$$




USA.gov is the U.S. government's official web portal to all federal, state and local government web resources and services.